Location: Copenhagen
(55.6670°N, 12.5830°E)
Time: 04:27:56
(UTC+02:00)

ACS3 Solar Sail - Pass Details

Date: 24 September 2024
Orbit: 959 x 1034 km, 97.5° (Epoch: 14 October)

Event Time Altitude Azimuth Distance (km) Brightness Sun altitude
Exits shadow 19:47:27 - 131° (SE) 3,511 4.2 -7.2°
Reaches altitude 10° 19:49:22 10° 125° (SE) 2,832 3.7 -7.4°
Drops below altitude 10° 20:01:03 10° 355° (N) 2,841 4.5 -9.1°
Enters shadow 21:08:26 -49° 167° (SSE) 10,890 7.1 -18.0°
Maximum altitude 21:38:53 59° 261° (W) 1,190 2.4 -21.8°
